ATLAS 5 CENTAUR DEB, 47096

Orbit data source: Space-Track

ATLAS 5 CENTAUR DEB, 47096 is space debris in HEO originally from a launch on Wed, 17 Sep 2014 UTC launched from the Air Force Eastern Test Range (AFETR). Debris objects in space refer to the collection of defunct objects orbiting the Earth. Examples of debris include non-operational satellites, rocket bodies, and fragments generated from explosions, collisions, or faulty payload assembly.

Loading next visibility...
Identifier
47096, 2014-055DE
Orbit
HEO
Country
Flag of USUS
Related business
Flag of USUnited Launch Alliance/Lockheed Martin (US)
Manufacturer
Unknown
Mission
Spacecraft
Bus & Motor
Unknown
Mass
Unknown
Launch date (UTC)
2014-09-17 (12 years ago)
Launch vehicle
Unknown
Launch site
Air Force Eastern Test Range (AFETR)
Object type
Payload
Rocket body
Debris
Shape & HBR
Unknown shape, 1.1 m
Radar Cross Section
RCS unknown

Expand to show TLE details & history
Last TLE update: 2 days ago

TLE from 2 days ago
0 ATLAS 5 CENTAUR DEB
1 47096U 14055DE  26171.09002271 -.00000040  00000-0  00000-0 0  9994
2 47096  19.3904 166.2177 4858124 124.7397 291.0559  1.79153899 37170
Epoch: 2026-06-20T02:09Z
TLE epoch observation values (Epoch: 2026-06-20T02:09:37.962Z)
Latitude
0.00002°
Longitude
-134.49831°
Altitude
23,840.396 km
Speed
3.53 km/s
True Right ascension
11h 04m 52s
True Declination
0° 00' 00"
Sunlit
Object was in daylight at epoch
Visualization orbit readout
Latitude
Unknown
Longitude
Unknown
Altitude
Unknown
Speed
Unknown
Apparent Right ascension
Unknown
Apparent Declination
Unknown
Sunlit
N/A
Visualization observer readout
Local Sidereal Time
21:41:28
Azimuth
Unknown
Elevation
Unknown
Doppler factor
Unknown
Orbital elements
Apogee altitude
36,172.99 km
Perigee altitude
8,347.317 km
Semi-major axis
28,638.29 km
Eccentricity
0.48581
Inclination
19.3904°
RAAN
166.2177°
Arg. of periapsis
124.7397°
True anomaly
235.32515°
Mean anomaly
291.0559°
Eccentric anomaly
263.40509°
Mean motion
0.44784 °/min
Orbital period
803.86 mins
BSTAR
0
Loading maneuver chart data...
Computing Atmospheric mass density...

Documentation

Showing up to 5 results
|